sat.trackr.live / text

‹ back to catalog

NINGXIA-1 9

NORAD 49021 · 2021-064D

PAYLOAD ACTIVE UNKNOWN

§ Identity

Operator
Country
PRC
Launch date
2021-07-09
Launch site
TAISC
Launch vehicle
Mass (kg)
RCS (m²)

External: N2YO · Heavens-Above · Gunter

§ Orbital elements

Epoch: 2026-05-24T23:12:42.564384Z

Period
102.23 min
Inclination
45.0040°
Eccentricity
0.0008349
Mean motion
14.08555909 rev/d
Perigee alt
858.3 km
Apogee alt
870.4 km
Semi-major
7,242.5 km
B*
-6.9303e-5
RAAN
331.8920°
Arg perigee
145.3770°
Mean anomaly
214.7611°
Rev number
25,095

§ Raw data

NINGXIA-1 91 49021U 21064D   26144.96715931 -.00000252  00000+0 -69303-4 0  99922 49021  45.0040 331.8920 0008349 145.3770 214.7611 14.08555909250957

JSON: /api/v1/satellites/49021 · /tle

For live sub-satellite position, see the globe view (requires WebGL).

§ Visibility from observer

Set your observer location to see the next 7 days of passes ≥ 10°. The values pass through the URL so the page stays shareable.

No JS? Fill the form by hand. The geolocation button needs JavaScript.